Chillicothe, MO

12:31 PM CST on February 10, 2016 (GMT -0600)
Chillicothe

Weather History for KCDJ - January, 2014

Change the Weather History Date:

Friday, January 3, 2014

  Actual Average (KIRK) Record (KIRK)
Temperature  
Mean Temperature 13 °F 26 °F  
Max Temperature 33 °F 35 °F 64 °F (1998)
Min Temperature -7 °F 17 °F -17 °F (1919)
Degree Days  
Heating Degree Days 52 39  
Month to date heating degree days 117  
Since 1 July heating degree days 2460  
Cooling Degree Days 0 0  
Month to date cooling degree days 0  
Year to date cooling degree days 0  
Moisture  
Dew Point 6 °F    
Average Humidity 63    
Maximum Humidity 79    
Minimum Humidity 54    
Precipitation  
Precipitation 0.00 in 0.03 in 1.73 in (1971)
Month to date precipitation 0.10  
Year to date precipitation 0.10  
Sea Level Pressure  
Sea Level Pressure 30.21 in    
Wind  
Wind Speed 7 mph (SSE)    
Max Wind Speed 18 mph    
Max Gust Speed 25 mph    
T = Trace of Precipitation, MM = Missing Value Source: NWS Daily Summary

Daily Weather History Graph

Daily Weather History Graph

Search for Another Location

Airport or City:

Trip Planner

Search our weather history database for the weather conditions in past years. The results will help you decide how hot, cold, wet, or windy it might be!

Date:

Astronomy

Jan. 03, 2014 Rise Set
Actual Time 7:35 AM CST 5:02 PM CST
Civil Twilight 7:05 AM CST 5:32 PM CST
Nautical Twilight 6:31 AM CST 6:06 PM CST
Astronomical Twilight 5:59 AM CST 6:38 PM CST
Moon 9:02 AM CST (1/3) 8:11 PM CST (1/3)
Length of Visible Light 10h 26m
Length of Day
9h 26m
Waxing Crescent, 8% of the Moon is Illuminated
Jan 3
Waxing Crescent
Jan 7
First Quarter
Jan 15
Full
Jan 23
Last Quarter
Jan 30
New

Hourly Weather History & Observations

Time (CST) Temp. Windchill Dew Point Humidity Pressure Visibility Wind Dir Wind Speed Gust Speed Precip Events Conditions
12:52 AM -4.0 °F - -9.9 °F 76% 30.57 in - Calm Calm - N/A   Unknown
1:52 AM -6.0 °F - -11.9 °F 75% 30.57 in - Calm Calm - N/A   Unknown
2:52 AM -6.0 °F - -11.9 °F 75% 30.56 in - Calm Calm - N/A   Unknown
3:52 AM -7.1 °F -15.9 °F -11.9 °F 79% 30.51 in - SSE 3.5 mph - N/A   Unknown
4:52 AM -2.9 °F -11.2 °F -9.0 °F 75% 30.50 in - SSE 3.5 mph - N/A   Unknown
5:52 AM 1.9 °F -10.6 °F -6.0 °F 69% 30.50 in - SSE 6.9 mph - N/A   Unknown
6:52 AM 1.9 °F -10.6 °F -6.0 °F 69% 30.48 in - SSE 6.9 mph - N/A   Unknown
7:52 AM 3.0 °F -10.5 °F -5.1 °F 69% 30.45 in - SE 8.1 mph - N/A   Unknown
8:52 AM 6.1 °F -8.7 °F -4.0 °F 63% 30.41 in - SSE 10.4 mph - N/A   Unknown
9:52 AM 12.0 °F 0.5 °F -0.0 °F 59% 30.38 in - South 8.1 mph - N/A   Unknown
10:52 AM 17.1 °F 5.0 °F 3.9 °F 56% 30.32 in - SSE 10.4 mph - N/A   Unknown
11:52 AM 21.0 °F 9.9 °F 7.0 °F 55% 30.25 in - South 10.4 mph 19.6 mph N/A   Unknown
12:52 PM 27.0 °F 16.1 °F 12.9 °F 56% 30.17 in - South 12.7 mph 23.0 mph N/A   Unknown
1:52 PM 28.9 °F 18.6 °F 15.1 °F 56% 30.12 in - South 12.7 mph 25.3 mph N/A   Unknown
2:52 PM 30.9 °F 21.2 °F 17.1 °F 57% 30.06 in - SSE 12.7 mph 21.9 mph N/A   Unknown
3:52 PM 30.9 °F 19.8 °F 18.0 °F 59% 30.01 in - SSE 16.1 mph 23.0 mph N/A   Unknown
4:52 PM 32.0 °F 20.8 °F 19.0 °F 59% 29.96 in - SSE 17.3 mph 24.2 mph N/A   Unknown
5:52 PM 32.0 °F 22.1 °F 19.9 °F 61% 29.94 in - South 13.8 mph 21.9 mph N/A   Unknown
6:52 PM 33.1 °F 24.4 °F 19.9 °F 59% 29.93 in - South 11.5 mph 24.2 mph N/A   Unknown
7:52 PM 30.9 °F 22.2 °F 19.9 °F 64% 29.92 in - South 10.4 mph - N/A   Unknown
8:52 PM 32.0 °F 22.1 °F 19.0 °F 59% 29.90 in - South 13.8 mph - N/A   Unknown
9:52 PM 33.1 °F 23.0 °F 18.0 °F 54% 29.88 in - South 15.0 mph - N/A   Unknown
10:52 PM 33.1 °F 21.9 °F 18.0 °F 54% 29.85 in - South 18.4 mph 25.3 mph N/A   Unknown
11:52 PM 33.1 °F 23.4 °F 19.0 °F 56% 29.83 in - South 13.8 mph 24.2 mph N/A   Unknown